Retour au catalogue

BREEZE-M R/B

ActifHEO
NORAD 36593·ROCKET BODY·🇷🇺 Russia

Lancé Jun 3, 2010 depuis Baikonur Cosmodrome

Loading…

Prochains Passages (prochaines 24 heures)

TLE

FraisSource: Space-Track

Époque: Sep 14, 2026, 03:33 UTC

1 36593U 10025B   26257.14793707  .00000082  00000-0  00000-0 0  9994
2 36593  19.4890  39.6907 5629859 223.6939  86.9054  2.07416530123030

Suivez BREEZE-M R/B en temps réel avec AllMySat

Download on the App Store